Regional Weather Roundup
Issued by NWS Lake Charles, LA

Home | Current Version | Previous Version | Text Only | Print | Product List | Glossary On
Versions: 1 2 3 4 5 6 7 8 9 10 11 12 13 14 15 16 17 18 19 20 21 22 23 24 25 26 27 28 29 30 31 32 33 34 35 36 37 38 39 40 41 42 43 44 45 46 47 48 49 50
000
ASUS44 KLCH 221110
RWRLCH
RWRLCH
REGIONAL WEATHER ROUNDUP
NATIONAL WEATHER SERVICE LAKE CHARLES LA
600 AM CDT TUE JUL 22 2014

Note: "fair" indicates few or no clouds below 12,000 feet with no
significant weather and/or obstructions to visibility.


ACROSS SOUTHEAST TEXAS

CITY           SKY/WX    TMP DP  RH WIND       PRES   REMARKS
BEAUMONT       CLEAR     77  75  93 CALM      30.01R
BEAUMONT CITY  NOT AVBL
ORANGE         NOT AVBL
JASPER         NOT AVBL
$$

ACROSS CENTRAL LOUISIANA

CITY           SKY/WX    TMP DP  RH WIND       PRES   REMARKS
LEESVILLE      PTCLDY    74  70  87 CALM      30.04R
FULLERTON        N/A     73  70  90 CALM      30.02R
ALEXANDRIA INT CLEAR     70  68  93 CALM      30.03R FOG
ESLER FIELD    CLEAR     68  65  90 CALM      30.04R FOG
DERIDDER       NOT AVBL
OAKDALE        SUNNY     71  69  95 CALM      30.03S FOG
OPELOUSAS      NOT AVBL
$$

ACROSS SOUTHWEST AND SOUTH CENTRAL LOUISIANA

CITY           SKY/WX    TMP DP  RH WIND       PRES   REMARKS
SULPHUR        NOT AVBL
LAKE CHARLES   CLEAR     76  75  97 N6        30.00F FOG
CHENNAULT INT  CLEAR     75  73  94 CALM      30.02S
CAMERON PHI    SUNNY     79  77  94 W7        30.00S
DEQUINCY       NOT AVBL
JENNINGS       NOT AVBL
LAFAYETTE      CLEAR     75  72  90 CALM      30.02R
NEW IBERIA     CLEAR     75  72  90 N5        30.01R
ABBEVILLE        N/A     74  72  93 CALM      30.01S
PATTERSON        N/A     75  75 100 CALM      30.04
SALT POINT       N/A     80  77  90 CALM      30.00S
$$

SELECTED SITES ACROSS THE REGION

CITY           SKY/WX    TMP DP  RH WIND       PRES   REMARKS
HOUSTON BUSH   CLEAR     78  76  93 CALM      30.02R
HOUSTON HOBBY  PTCLDY    77  75  93 CALM      30.01R
GALVESTON      PTCLDY    81  78  91 W3        30.02S
COLLEGE STAT   CLEAR     77  74  90 SE3       30.03R
CONROE         CLEAR     74  74 100 CALM      30.04R FOG
HUNTSVILLE     PTCLDY    77  75  93 CALM      30.04R
LUFKIN         CLOUDY    77  73  87 E3        30.04R
SHREVEPORT     PTCLDY    69  67  93 CALM      30.05R
MONROE         CLEAR     69  68  96 NE5       30.06R FOG
NATCHEZ MS     CLEAR     68  66  94 CALM      30.05R
BATON ROUGE    CLEAR     71  69  93 CALM      30.02R
N.O. INTL ARPT PTCLDY    77  73  87 CALM      30.01R
SLIDELL        CLEAR     72  70  93 CALM      30.01R
$$

MARINE REPORTS

STATION/POSITION TIME  TEMP    WIND        PRES    VSBY  WAVE
                       AIR SEA DIR/SP/G                  HT/PER
                 (UTC) (F)     (DEG/KT/KT) (MB)    (MI)  (FT/S)
BUOY 30 S HIGH I NOT AVBL
SEA RIM ST PARK  1100   80     310/  4/  5 1016.6R
PORT ARTHUR      1100      87  330/  5/  7 1016.1S
SABINE PASS N    1100   80 85  310/  5/  6 1016.1F
TEXAS POINT      1100   80 85  310/  7/  8 1016.1F
CALCASIEU PASS   1100   80 84  290/  6/  7 1016.9R
LK CHARLES BEACH 1100   78 81              1017.0S
MARSH ISLAND     1000   82     320/  8/ 10   N/A
FRESH WATER LOCK 1100   77 86  290/  4/  5 1016.0R
AMERADA PASS     1100   78 83   CALM  /  1 1016.0F
$$



USA.gov is the U.S. government's official web portal to all federal, state and local government web resources and services.